owner,sensor,date,latitude,longitude,vertical_datum,mass_concentration_of_oxygen_in_sea_water,qcFlag 
TCOON,ioos:station:TCOON:074:1,2017-09-01T00:30:00Z,27.8516,-97.4820,1.0,11.87,1111122 
TCOON,ioos:station:TCOON:074:1,2017-09-01T01:30:00Z,27.8516,-97.4820,1.0,11.09,1111122 
TCOON,ioos:station:TCOON:074:1,2017-09-01T02:30:00Z,27.8516,-97.4820,1.0,10.13,1111122 
TCOON,ioos:station:TCOON:074:1,2017-09-01T03:30:00Z,27.8516,-97.4820,1.0,11.22,1111122 
TCOON,ioos:station:TCOON:074:1,2017-09-01T04:30:00Z,27.8516,-97.4820,1.0,10.11,1111122 
TCOON,ioos:station:TCOON:074:1,2017-09-01T05:30:00Z,27.8516,-97.4820,1.0,9.65,1111122 
TCOON,ioos:station:TCOON:074:1,2017-09-01T06:30:00Z,27.8516,-97.4820,1.0,9.36,1111122 
TCOON,ioos:station:TCOON:074:1,2017-09-01T07:30:00Z,27.8516,-97.4820,1.0,9.73,1111122 
TCOON,ioos:station:TCOON:074:1,2017-09-01T08:30:00Z,27.8516,-97.4820,1.0,8.62,1111122 
TCOON,ioos:station:TCOON:074:1,2017-09-01T09:30:00Z,27.8516,-97.4820,1.0,8.41,1111122 
TCOON,ioos:station:TCOON:074:1,2017-09-01T10:30:00Z,27.8516,-97.4820,1.0,6.96,1111122 
TCOON,ioos:station:TCOON:074:1,2017-09-01T11:30:00Z,27.8516,-97.4820,1.0,6.43,1111122 
TCOON,ioos:station:TCOON:074:1,2017-09-01T12:30:00Z,27.8516,-97.4820,1.0,5.58,1111122 
TCOON,ioos:station:TCOON:074:1,2017-09-01T13:30:00Z,27.8516,-97.4820,1.0,4.69,1111122 
TCOON,ioos:station:TCOON:074:1,2017-09-01T14:30:00Z,27.8516,-97.4820,1.0,6.5,1111122 
TCOON,ioos:station:TCOON:074:1,2017-09-01T15:30:00Z,27.8516,-97.4820,1.0,7.69,1111122 
TCOON,ioos:station:TCOON:074:1,2017-09-01T16:30:00Z,27.8516,-97.4820,1.0,10.04,1111122 
TCOON,ioos:station:TCOON:074:1,2017-09-01T17:30:00Z,27.8516,-97.4820,1.0,10.82,1111122 
TCOON,ioos:station:TCOON:074:1,2017-09-01T18:30:00Z,27.8516,-97.4820,1.0,12.05,1111122 
TCOON,ioos:station:TCOON:074:1,2017-09-01T19:30:00Z,27.8516,-97.4820,1.0,12.81,1111122 
TCOON,ioos:station:TCOON:074:1,2017-09-01T20:30:00Z,27.8516,-97.4820,1.0,12.84,1111122 
TCOON,ioos:station:TCOON:074:1,2017-09-01T21:30:00Z,27.8516,-97.4820,1.0,12.61,1111122 
TCOON,ioos:station:TCOON:074:1,2017-09-01T22:30:00Z,27.8516,-97.4820,1.0,12.21,1111122 
TCOON,ioos:station:TCOON:074:1,2017-09-02T00:30:00Z,27.8516,-97.4820,1.0,10.72,1111122 
TCOON,ioos:station:TCOON:074:1,2017-09-02T01:30:00Z,27.8516,-97.4820,1.0,10.3,1111122 
TCOON,ioos:station:TCOON:074:1,2017-09-02T02:30:00Z,27.8516,-97.4820,1.0,10.14,1111122 
TCOON,ioos:station:TCOON:074:1,2017-09-02T03:30:00Z,27.8516,-97.4820,1.0,9.66,1111122 
TCOON,ioos:station:TCOON:074:1,2017-09-02T04:30:00Z,27.8516,-97.4820,1.0,9.34,1111122 
TCOON,ioos:station:TCOON:074:1,2017-09-02T05:30:00Z,27.8516,-97.4820,1.0,9.16,1111122 
TCOON,ioos:station:TCOON:074:1,2017-09-02T06:30:00Z,27.8516,-97.4820,1.0,9.02,1111122 
TCOON,ioos:station:TCOON:074:1,2017-09-02T07:30:00Z,27.8516,-97.4820,1.0,8.57,1111122 
TCOON,ioos:station:TCOON:074:1,2017-09-02T08:30:00Z,27.8516,-97.4820,1.0,8.22,1111122 
TCOON,ioos:station:TCOON:074:1,2017-09-02T09:30:00Z,27.8516,-97.4820,1.0,7.79,1111122 
TCOON,ioos:station:TCOON:074:1,2017-09-02T10:30:00Z,27.8516,-97.4820,1.0,7.41,1111122 
TCOON,ioos:station:TCOON:074:1,2017-09-02T11:30:00Z,27.8516,-97.4820,1.0,7.54,1111122 
TCOON,ioos:station:TCOON:074:1,2017-09-02T12:30:00Z,27.8516,-97.4820,1.0,7.6,1111122 
TCOON,ioos:station:TCOON:074:1,2017-09-02T13:30:00Z,27.8516,-97.4820,1.0,7.77,1111122 
TCOON,ioos:station:TCOON:074:1,2017-09-02T14:30:00Z,27.8516,-97.4820,1.0,7.94,1111122 
TCOON,ioos:station:TCOON:074:1,2017-09-02T15:30:00Z,27.8516,-97.4820,1.0,8.32,1111122 
TCOON,ioos:station:TCOON:074:1,2017-09-02T16:30:00Z,27.8516,-97.4820,1.0,8.62,1111122 
TCOON,ioos:station:TCOON:074:1,2017-09-02T17:30:00Z,27.8516,-97.4820,1.0,8.67,1111122 
TCOON,ioos:station:TCOON:074:1,2017-09-02T18:30:00Z,27.8516,-97.4820,1.0,8.98,1111122 
TCOON,ioos:station:TCOON:074:1,2017-09-02T19:30:00Z,27.8516,-97.4820,1.0,9.21,1111122 
TCOON,ioos:station:TCOON:074:1,2017-09-02T20:30:00Z,27.8516,-97.4820,1.0,8.97,1111122 
TCOON,ioos:station:TCOON:074:1,2017-09-02T21:30:00Z,27.8516,-97.4820,1.0,9.14,1111122 
TCOON,ioos:station:TCOON:074:1,2017-09-02T22:30:00Z,27.8516,-97.4820,1.0,9.08,1111122 
TCOON,ioos:station:TCOON:074:1,2017-09-02T23:30:00Z,27.8516,-97.4820,1.0,8.86,1111122 
TCOON,ioos:station:TCOON:074:1,2017-09-03T00:30:00Z,27.8516,-97.4820,1.0,8.26,1111122 
TCOON,ioos:station:TCOON:074:1,2017-09-03T01:30:00Z,27.8516,-97.4820,1.0,7.61,1111122 
TCOON,ioos:station:TCOON:074:1,2017-09-03T02:30:00Z,27.8516,-97.4820,1.0,6.99,1111122 
TCOON,ioos:station:TCOON:074:1,2017-09-03T03:30:00Z,27.8516,-97.4820,1.0,6.93,1111122 
TCOON,ioos:station:TCOON:074:1,2017-09-03T04:30:00Z,27.8516,-97.4820,1.0,7.01,1111122 
TCOON,ioos:station:TCOON:074:1,2017-09-03T05:30:00Z,27.8516,-97.4820,1.0,6.88,1111122 
TCOON,ioos:station:TCOON:074:1,2017-09-03T06:30:00Z,27.8516,-97.4820,1.0,6.81,1111122 
TCOON,ioos:station:TCOON:074:1,2017-09-03T07:30:00Z,27.8516,-97.4820,1.0,6.64,1111122 
TCOON,ioos:station:TCOON:074:1,2017-09-03T08:30:00Z,27.8516,-97.4820,1.0,6.51,1111122 
TCOON,ioos:station:TCOON:074:1,2017-09-03T09:30:00Z,27.8516,-97.4820,1.0,6.28,1111122 
TCOON,ioos:station:TCOON:074:1,2017-09-03T10:30:00Z,27.8516,-97.4820,1.0,5.78,1111122 
TCOON,ioos:station:TCOON:074:1,2017-09-03T11:30:00Z,27.8516,-97.4820,1.0,5.78,1111122 
TCOON,ioos:station:TCOON:074:1,2017-09-03T12:30:00Z,27.8516,-97.4820,1.0,5.95,1111122 
TCOON,ioos:station:TCOON:074:1,2017-09-03T13:30:00Z,27.8516,-97.4820,1.0,5.88,1111122 
TCOON,ioos:station:TCOON:074:1,2017-09-03T14:30:00Z,27.8516,-97.4820,1.0,5.47,1111122 
TCOON,ioos:station:TCOON:074:1,2017-09-03T15:30:00Z,27.8516,-97.4820,1.0,5.78,1111122 
TCOON,ioos:station:TCOON:074:1,2017-09-03T16:30:00Z,27.8516,-97.4820,1.0,6.3,1111122 
TCOON,ioos:station:TCOON:074:1,2017-09-03T17:30:00Z,27.8516,-97.4820,1.0,6.91,1111122 
TCOON,ioos:station:TCOON:074:1,2017-09-03T18:30:00Z,27.8516,-97.4820,1.0,7.7,1111122 
TCOON,ioos:station:TCOON:074:1,2017-09-03T19:30:00Z,27.8516,-97.4820,1.0,7.95,1111122 
TCOON,ioos:station:TCOON:074:1,2017-09-03T20:30:00Z,27.8516,-97.4820,1.0,8.36,1111122 
TCOON,ioos:station:TCOON:074:1,2017-09-03T21:30:00Z,27.8516,-97.4820,1.0,8.48,1111122 
TCOON,ioos:station:TCOON:074:1,2017-09-03T22:30:00Z,27.8516,-97.4820,1.0,8.38,1111122 
TCOON,ioos:station:TCOON:074:1,2017-09-03T23:30:00Z,27.8516,-97.4820,1.0,7.95,1111122 
TCOON,ioos:station:TCOON:074:1,2017-09-04T00:30:00Z,27.8516,-97.4820,1.0,7.82,1111122 
TCOON,ioos:station:TCOON:074:1,2017-09-04T01:30:00Z,27.8516,-97.4820,1.0,7.24,1111122 
TCOON,ioos:station:TCOON:074:1,2017-09-04T02:30:00Z,27.8516,-97.4820,1.0,6.67,1111122 
TCOON,ioos:station:TCOON:074:1,2017-09-04T03:30:00Z,27.8516,-97.4820,1.0,6.28,1111122 
TCOON,ioos:station:TCOON:074:1,2017-09-04T04:30:00Z,27.8516,-97.4820,1.0,6.45,1111122 
TCOON,ioos:station:TCOON:074:1,2017-09-04T05:30:00Z,27.8516,-97.4820,1.0,6.11,1111122 
TCOON,ioos:station:TCOON:074:1,2017-09-04T06:30:00Z,27.8516,-97.4820,1.0,6.58,1111122 
TCOON,ioos:station:TCOON:074:1,2017-09-04T07:30:00Z,27.8516,-97.4820,1.0,6.54,1111122 
TCOON,ioos:station:TCOON:074:1,2017-09-04T08:30:00Z,27.8516,-97.4820,1.0,6.5,1111122 
TCOON,ioos:station:TCOON:074:1,2017-09-04T09:30:00Z,27.8516,-97.4820,1.0,6.12,1111122 
TCOON,ioos:station:TCOON:074:1,2017-09-04T10:30:00Z,27.8516,-97.4820,1.0,5.47,1111122 
TCOON,ioos:station:TCOON:074:1,2017-09-04T11:30:00Z,27.8516,-97.4820,1.0,5.6,1111122 
TCOON,ioos:station:TCOON:074:1,2017-09-04T12:30:00Z,27.8516,-97.4820,1.0,5.7,1111122 
TCOON,ioos:station:TCOON:074:1,2017-09-04T13:30:00Z,27.8516,-97.4820,1.0,5.37,1111122 
TCOON,ioos:station:TCOON:074:1,2017-09-04T14:30:00Z,27.8516,-97.4820,1.0,5.42,1111122 
TCOON,ioos:station:TCOON:074:1,2017-09-04T15:30:00Z,27.8516,-97.4820,1.0,5.88,1111122 
TCOON,ioos:station:TCOON:074:1,2017-09-04T16:30:00Z,27.8516,-97.4820,1.0,6.2,1111122 
TCOON,ioos:station:TCOON:074:1,2017-09-04T17:30:00Z,27.8516,-97.4820,1.0,6.52,1111122 
TCOON,ioos:station:TCOON:074:1,2017-09-04T18:30:00Z,27.8516,-97.4820,1.0,7.02,1111122 
TCOON,ioos:station:TCOON:074:1,2017-09-04T19:30:00Z,27.8516,-97.4820,1.0,6.85,1111122 
TCOON,ioos:station:TCOON:074:1,2017-09-04T20:30:00Z,27.8516,-97.4820,1.0,6.97,1111122 
TCOON,ioos:station:TCOON:074:1,2017-09-04T21:30:00Z,27.8516,-97.4820,1.0,7.05,1111122 
TCOON,ioos:station:TCOON:074:1,2017-09-04T22:30:00Z,27.8516,-97.4820,1.0,7.03,1111122 
TCOON,ioos:station:TCOON:074:1,2017-09-05T00:30:00Z,27.8516,-97.4820,1.0,6.63,1111122 
TCOON,ioos:station:TCOON:074:1,2017-09-05T01:30:00Z,27.8516,-97.4820,1.0,6.67,1111122 
TCOON,ioos:station:TCOON:074:1,2017-09-05T02:30:00Z,27.8516,-97.4820,1.0,6.7,1111122 
TCOON,ioos:station:TCOON:074:1,2017-09-05T03:30:00Z,27.8516,-97.4820,1.0,6.4,1111122 
TCOON,ioos:station:TCOON:074:1,2017-09-05T04:30:00Z,27.8516,-97.4820,1.0,6.6,1111122 
TCOON,ioos:station:TCOON:074:1,2017-09-05T05:30:00Z,27.8516,-97.4820,1.0,6.88,1111122 
TCOON,ioos:station:TCOON:074:1,2017-09-05T06:30:00Z,27.8516,-97.4820,1.0,6.8,1111122 
TCOON,ioos:station:TCOON:074:1,2017-09-05T07:30:00Z,27.8516,-97.4820,1.0,6.66,1111122 
TCOON,ioos:station:TCOON:074:1,2017-09-05T08:30:00Z,27.8516,-97.4820,1.0,6.6,1111122 
TCOON,ioos:station:TCOON:074:1,2017-09-05T09:30:00Z,27.8516,-97.4820,1.0,5.96,1111122 
TCOON,ioos:station:TCOON:074:1,2017-09-05T10:30:00Z,27.8516,-97.4820,1.0,5.95,1111122 
TCOON,ioos:station:TCOON:074:1,2017-09-05T11:30:00Z,27.8516,-97.4820,1.0,4.86,1111122 
TCOON,ioos:station:TCOON:074:1,2017-09-05T12:30:00Z,27.8516,-97.4820,1.0,5.04,1111122 
TCOON,ioos:station:TCOON:074:1,2017-09-05T13:30:00Z,27.8516,-97.4820,1.0,4.64,1111122 
TCOON,ioos:station:TCOON:074:1,2017-09-05T14:30:00Z,27.8516,-97.4820,1.0,4.58,1111122 
TCOON,ioos:station:TCOON:074:1,2017-09-05T15:30:00Z,27.8516,-97.4820,1.0,4.7,1111122 
TCOON,ioos:station:TCOON:074:1,2017-09-05T16:30:00Z,27.8516,-97.4820,1.0,5.1,1111122 
TCOON,ioos:station:TCOON:074:1,2017-09-05T17:30:00Z,27.8516,-97.4820,1.0,5.85,1111122 
TCOON,ioos:station:TCOON:074:1,2017-09-05T18:30:00Z,27.8516,-97.4820,1.0,6.75,1111122 
TCOON,ioos:station:TCOON:074:1,2017-09-05T19:30:00Z,27.8516,-97.4820,1.0,7.15,1111122 
TCOON,ioos:station:TCOON:074:1,2017-09-05T20:30:00Z,27.8516,-97.4820,1.0,8.06,1111122 
TCOON,ioos:station:TCOON:074:1,2017-09-05T21:30:00Z,27.8516,-97.4820,1.0,7.74,1111122 
TCOON,ioos:station:TCOON:074:1,2017-09-05T22:30:00Z,27.8516,-97.4820,1.0,7.53,1111122 
TCOON,ioos:station:TCOON:074:1,2017-09-05T23:30:00Z,27.8516,-97.4820,1.0,7.41,1111122 
TCOON,ioos:station:TCOON:074:1,2017-09-06T00:30:00Z,27.8516,-97.4820,1.0,7.29,1111122 
TCOON,ioos:station:TCOON:074:1,2017-09-06T01:30:00Z,27.8516,-97.4820,1.0,6.97,1111122 
TCOON,ioos:station:TCOON:074:1,2017-09-07T14:30:00Z,27.8516,-97.4820,1.0,5.2,1111122 
TCOON,ioos:station:TCOON:074:1,2017-09-07T15:30:00Z,27.8516,-97.4820,1.0,5.52,1111122 
TCOON,ioos:station:TCOON:074:1,2017-09-07T16:30:00Z,27.8516,-97.4820,1.0,5.93,1111122 
TCOON,ioos:station:TCOON:074:1,2017-09-07T17:30:00Z,27.8516,-97.4820,1.0,6.01,1111122 
TCOON,ioos:station:TCOON:074:1,2017-09-07T18:30:00Z,27.8516,-97.4820,1.0,6.82,1111122 
TCOON,ioos:station:TCOON:074:1,2017-09-07T19:30:00Z,27.8516,-97.4820,1.0,7.09,1111122 
TCOON,ioos:station:TCOON:074:1,2017-09-07T20:30:00Z,27.8516,-97.4820,1.0,7.16,1111122 
TCOON,ioos:station:TCOON:074:1,2017-09-07T21:30:00Z,27.8516,-97.4820,1.0,7.68,1111122 
TCOON,ioos:station:TCOON:074:1,2017-09-07T22:30:00Z,27.8516,-97.4820,1.0,7.5,1111122 
TCOON,ioos:station:TCOON:074:1,2017-09-07T23:30:00Z,27.8516,-97.4820,1.0,7.5,1111122 
TCOON,ioos:station:TCOON:074:1,2017-09-08T00:30:00Z,27.8516,-97.4820,1.0,7.42,1111122 
TCOON,ioos:station:TCOON:074:1,2017-09-08T01:30:00Z,27.8516,-97.4820,1.0,7.05,1111122 
TCOON,ioos:station:TCOON:074:1,2017-09-08T02:30:00Z,27.8516,-97.4820,1.0,6.61,1111122 
TCOON,ioos:station:TCOON:074:1,2017-09-08T03:30:00Z,27.8516,-97.4820,1.0,6.45,1111122 
TCOON,ioos:station:TCOON:074:1,2017-09-08T04:30:00Z,27.8516,-97.4820,1.0,6.53,1111122 
TCOON,ioos:station:TCOON:074:1,2017-09-08T05:30:00Z,27.8516,-97.4820,1.0,6.33,1111122 
TCOON,ioos:station:TCOON:074:1,2017-09-08T06:30:00Z,27.8516,-97.4820,1.0,6.4,1111122 
TCOON,ioos:station:TCOON:074:1,2017-09-08T07:30:00Z,27.8516,-97.4820,1.0,6.19,1111122 
TCOON,ioos:station:TCOON:074:1,2017-09-08T08:30:00Z,27.8516,-97.4820,1.0,6.33,1111122 
TCOON,ioos:station:TCOON:074:1,2017-09-08T09:30:00Z,27.8516,-97.4820,1.0,6.17,1111122 
TCOON,ioos:station:TCOON:074:1,2017-09-08T10:30:00Z,27.8516,-97.4820,1.0,6.01,1111122 
TCOON,ioos:station:TCOON:074:1,2017-09-08T11:30:00Z,27.8516,-97.4820,1.0,5.84,1111122 
TCOON,ioos:station:TCOON:074:1,2017-09-08T12:30:00Z,27.8516,-97.4820,1.0,5.74,1111122 
TCOON,ioos:station:TCOON:074:1,2017-09-08T13:30:00Z,27.8516,-97.4820,1.0,5.81,1111122 
TCOON,ioos:station:TCOON:074:1,2017-09-08T14:30:00Z,27.8516,-97.4820,1.0,5.97,1111122 
TCOON,ioos:station:TCOON:074:1,2017-09-08T15:30:00Z,27.8516,-97.4820,1.0,6.33,1111122 
TCOON,ioos:station:TCOON:074:1,2017-09-08T16:30:00Z,27.8516,-97.4820,1.0,6.18,1111122 
TCOON,ioos:station:TCOON:074:1,2017-09-08T17:30:00Z,27.8516,-97.4820,1.0,6.42,1111122 
TCOON,ioos:station:TCOON:074:1,2017-09-08T18:30:00Z,27.8516,-97.4820,1.0,6.5,1111122 
TCOON,ioos:station:TCOON:074:1,2017-09-08T19:30:00Z,27.8516,-97.4820,1.0,6.91,1111122 
TCOON,ioos:station:TCOON:074:1,2017-09-08T20:30:00Z,27.8516,-97.4820,1.0,6.9,1111122 
TCOON,ioos:station:TCOON:074:1,2017-09-08T21:30:00Z,27.8516,-97.4820,1.0,7.04,1111122 
TCOON,ioos:station:TCOON:074:1,2017-09-08T22:30:00Z,27.8516,-97.4820,1.0,7.02,1111122 
TCOON,ioos:station:TCOON:074:1,2017-09-08T23:30:00Z,27.8516,-97.4820,1.0,6.51,1111122 
TCOON,ioos:station:TCOON:074:1,2017-09-09T00:30:00Z,27.8516,-97.4820,1.0,6.27,1111122 
TCOON,ioos:station:TCOON:074:1,2017-09-09T01:30:00Z,27.8516,-97.4820,1.0,5.96,1111122 
TCOON,ioos:station:TCOON:074:1,2017-09-09T02:30:00Z,27.8516,-97.4820,1.0,5.64,1111122 
TCOON,ioos:station:TCOON:074:1,2017-09-09T03:30:00Z,27.8516,-97.4820,1.0,5.52,1111122 
TCOON,ioos:station:TCOON:074:1,2017-09-09T04:30:00Z,27.8516,-97.4820,1.0,4.88,1111122 
TCOON,ioos:station:TCOON:074:1,2017-09-09T05:30:00Z,27.8516,-97.4820,1.0,5.28,1111122 
TCOON,ioos:station:TCOON:074:1,2017-09-09T06:30:00Z,27.8516,-97.4820,1.0,4.74,1111122 
TCOON,ioos:station:TCOON:074:1,2017-09-09T07:30:00Z,27.8516,-97.4820,1.0,4.96,1111122 
TCOON,ioos:station:TCOON:074:1,2017-09-09T08:30:00Z,27.8516,-97.4820,1.0,4.9,1111122 
TCOON,ioos:station:TCOON:074:1,2017-09-09T09:30:00Z,27.8516,-97.4820,1.0,5.07,1111122 
TCOON,ioos:station:TCOON:074:1,2017-09-09T10:30:00Z,27.8516,-97.4820,1.0,4.84,1111122 
TCOON,ioos:station:TCOON:074:1,2017-09-09T11:30:00Z,27.8516,-97.4820,1.0,4.49,1111122 
TCOON,ioos:station:TCOON:074:1,2017-09-09T12:30:00Z,27.8516,-97.4820,1.0,4.65,1111122 
TCOON,ioos:station:TCOON:074:1,2017-09-09T13:30:00Z,27.8516,-97.4820,1.0,4.81,1111122 
TCOON,ioos:station:TCOON:074:1,2017-09-09T14:30:00Z,27.8516,-97.4820,1.0,4.61,1111122 
TCOON,ioos:station:TCOON:074:1,2017-09-09T15:30:00Z,27.8516,-97.4820,1.0,5.09,1111122 
TCOON,ioos:station:TCOON:074:1,2017-09-09T16:30:00Z,27.8516,-97.4820,1.0,5.37,1111122 
TCOON,ioos:station:TCOON:074:1,2017-09-09T17:30:00Z,27.8516,-97.4820,1.0,5.23,1111122 
TCOON,ioos:station:TCOON:074:1,2017-09-09T18:30:00Z,27.8516,-97.4820,1.0,5.52,1111122 
TCOON,ioos:station:TCOON:074:1,2017-09-09T19:30:00Z,27.8516,-97.4820,1.0,5.23,1111122 
TCOON,ioos:station:TCOON:074:1,2017-09-09T20:30:00Z,27.8516,-97.4820,1.0,5.9,1111122 
TCOON,ioos:station:TCOON:074:1,2017-09-09T21:30:00Z,27.8516,-97.4820,1.0,7.12,1111122 
TCOON,ioos:station:TCOON:074:1,2017-09-09T22:30:00Z,27.8516,-97.4820,1.0,7.26,1111122 
TCOON,ioos:station:TCOON:074:1,2017-09-09T23:30:00Z,27.8516,-97.4820,1.0,7.3,1111122 
TCOON,ioos:station:TCOON:074:1,2017-09-10T00:30:00Z,27.8516,-97.4820,1.0,6.61,1111122 
TCOON,ioos:station:TCOON:074:1,2017-09-10T01:30:00Z,27.8516,-97.4820,1.0,6.17,1111122 
TCOON,ioos:station:TCOON:074:1,2017-09-10T02:30:00Z,27.8516,-97.4820,1.0,5.42,1111122 
TCOON,ioos:station:TCOON:074:1,2017-09-10T03:30:00Z,27.8516,-97.4820,1.0,5.22,1111122 
TCOON,ioos:station:TCOON:074:1,2017-09-10T04:30:00Z,27.8516,-97.4820,1.0,5.37,1111122 
TCOON,ioos:station:TCOON:074:1,2017-09-10T05:30:00Z,27.8516,-97.4820,1.0,5.1,1111122 
TCOON,ioos:station:TCOON:074:1,2017-09-10T06:30:00Z,27.8516,-97.4820,1.0,5.58,1111122 
TCOON,ioos:station:TCOON:074:1,2017-09-10T07:30:00Z,27.8516,-97.4820,1.0,6.13,1111122 
TCOON,ioos:station:TCOON:074:1,2017-09-10T08:30:00Z,27.8516,-97.4820,1.0,5.44,1111122 
TCOON,ioos:station:TCOON:074:1,2017-09-10T09:30:00Z,27.8516,-97.4820,1.0,5.68,1111122 
TCOON,ioos:station:TCOON:074:1,2017-09-10T10:30:00Z,27.8516,-97.4820,1.0,5.42,1111122 
TCOON,ioos:station:TCOON:074:1,2017-09-10T11:30:00Z,27.8516,-97.4820,1.0,5.35,1111122 
TCOON,ioos:station:TCOON:074:1,2017-09-10T12:30:00Z,27.8516,-97.4820,1.0,5.56,1111122 
TCOON,ioos:station:TCOON:074:1,2017-09-10T13:30:00Z,27.8516,-97.4820,1.0,5.78,1111122 
TCOON,ioos:station:TCOON:074:1,2017-09-10T14:30:00Z,27.8516,-97.4820,1.0,5.9,1111122 
TCOON,ioos:station:TCOON:074:1,2017-09-10T15:30:00Z,27.8516,-97.4820,1.0,6.06,1111122 
TCOON,ioos:station:TCOON:074:1,2017-09-10T16:30:00Z,27.8516,-97.4820,1.0,6.65,1111122 
TCOON,ioos:station:TCOON:074:1,2017-09-10T17:30:00Z,27.8516,-97.4820,1.0,6.86,1111122 
TCOON,ioos:station:TCOON:074:1,2017-09-10T18:30:00Z,27.8516,-97.4820,1.0,6.77,1111122 
TCOON,ioos:station:TCOON:074:1,2017-09-10T19:30:00Z,27.8516,-97.4820,1.0,7.13,1111122 
TCOON,ioos:station:TCOON:074:1,2017-09-10T20:30:00Z,27.8516,-97.4820,1.0,7.44,1111122 
TCOON,ioos:station:TCOON:074:1,2017-09-10T21:30:00Z,27.8516,-97.4820,1.0,7.34,1111122 
TCOON,ioos:station:TCOON:074:1,2017-09-10T22:30:00Z,27.8516,-97.4820,1.0,8.42,1111122 
TCOON,ioos:station:TCOON:074:1,2017-09-10T23:30:00Z,27.8516,-97.4820,1.0,7.65,1111122 
TCOON,ioos:station:TCOON:074:1,2017-09-11T00:30:00Z,27.8516,-97.4820,1.0,7.93,1111122 
TCOON,ioos:station:TCOON:074:1,2017-09-11T01:30:00Z,27.8516,-97.4820,1.0,7.57,1111122 
TCOON,ioos:station:TCOON:074:1,2017-09-11T02:30:00Z,27.8516,-97.4820,1.0,7.15,1111122 
TCOON,ioos:station:TCOON:074:1,2017-09-11T03:30:00Z,27.8516,-97.4820,1.0,6.81,1111122 
TCOON,ioos:station:TCOON:074:1,2017-09-11T04:30:00Z,27.8516,-97.4820,1.0,7.1,1111122 
TCOON,ioos:station:TCOON:074:1,2017-09-11T05:30:00Z,27.8516,-97.4820,1.0,6.69,1111122 
TCOON,ioos:station:TCOON:074:1,2017-09-11T06:30:00Z,27.8516,-97.4820,1.0,6.46,1111122 
TCOON,ioos:station:TCOON:074:1,2017-09-11T07:30:00Z,27.8516,-97.4820,1.0,6.47,1111122 
TCOON,ioos:station:TCOON:074:1,2017-09-11T08:30:00Z,27.8516,-97.4820,1.0,6.45,1111122 
TCOON,ioos:station:TCOON:074:1,2017-09-11T09:30:00Z,27.8516,-97.4820,1.0,6.22,1111122 
TCOON,ioos:station:TCOON:074:1,2017-09-11T10:30:00Z,27.8516,-97.4820,1.0,6.25,1111122 
TCOON,ioos:station:TCOON:074:1,2017-09-11T11:30:00Z,27.8516,-97.4820,1.0,5.65,1111122 
TCOON,ioos:station:TCOON:074:1,2017-09-11T12:30:00Z,27.8516,-97.4820,1.0,5.67,1111122 
TCOON,ioos:station:TCOON:074:1,2017-09-11T13:30:00Z,27.8516,-97.4820,1.0,5.96,1111122 
TCOON,ioos:station:TCOON:074:1,2017-09-11T14:30:00Z,27.8516,-97.4820,1.0,6.09,1111122 
TCOON,ioos:station:TCOON:074:1,2017-09-11T15:30:00Z,27.8516,-97.4820,1.0,6.19,1111122 
TCOON,ioos:station:TCOON:074:1,2017-09-11T16:30:00Z,27.8516,-97.4820,1.0,6.2,1111122 
TCOON,ioos:station:TCOON:074:1,2017-09-11T17:30:00Z,27.8516,-97.4820,1.0,6.79,1111122 
TCOON,ioos:station:TCOON:074:1,2017-09-11T18:30:00Z,27.8516,-97.4820,1.0,7.04,1111122 
TCOON,ioos:station:TCOON:074:1,2017-09-11T19:30:00Z,27.8516,-97.4820,1.0,7.55,1111122 
TCOON,ioos:station:TCOON:074:1,2017-09-11T20:30:00Z,27.8516,-97.4820,1.0,7.66,1111122 
TCOON,ioos:station:TCOON:074:1,2017-09-11T21:30:00Z,27.8516,-97.4820,1.0,7.83,1111122 
TCOON,ioos:station:TCOON:074:1,2017-09-11T22:30:00Z,27.8516,-97.4820,1.0,7.7,1111122 
TCOON,ioos:station:TCOON:074:1,2017-09-11T23:30:00Z,27.8516,-97.4820,1.0,8.0,1111122 
TCOON,ioos:station:TCOON:074:1,2017-09-12T00:30:00Z,27.8516,-97.4820,1.0,7.91,1111122 
TCOON,ioos:station:TCOON:074:1,2017-09-12T01:30:00Z,27.8516,-97.4820,1.0,7.83,1111122 
TCOON,ioos:station:TCOON:074:1,2017-09-12T02:30:00Z,27.8516,-97.4820,1.0,7.34,1111122 
TCOON,ioos:station:TCOON:074:1,2017-09-12T03:30:00Z,27.8516,-97.4820,1.0,7.47,1111122 
TCOON,ioos:station:TCOON:074:1,2017-09-12T04:30:00Z,27.8516,-97.4820,1.0,6.82,1111122 
TCOON,ioos:station:TCOON:074:1,2017-09-12T05:30:00Z,27.8516,-97.4820,1.0,6.45,1111122 
TCOON,ioos:station:TCOON:074:1,2017-09-12T06:30:00Z,27.8516,-97.4820,1.0,6.4,1111122 
TCOON,ioos:station:TCOON:074:1,2017-09-12T07:30:00Z,27.8516,-97.4820,1.0,6.14,1111122 
TCOON,ioos:station:TCOON:074:1,2017-09-12T08:30:00Z,27.8516,-97.4820,1.0,5.18,1111122 
TCOON,ioos:station:TCOON:074:1,2017-09-12T09:30:00Z,27.8516,-97.4820,1.0,5.64,1111122 
TCOON,ioos:station:TCOON:074:1,2017-09-12T10:30:00Z,27.8516,-97.4820,1.0,6.1,1111122 
TCOON,ioos:station:TCOON:074:1,2017-09-12T11:30:00Z,27.8516,-97.4820,1.0,6.09,1111122 
TCOON,ioos:station:TCOON:074:1,2017-09-12T12:30:00Z,27.8516,-97.4820,1.0,5.8,1111122 
TCOON,ioos:station:TCOON:074:1,2017-09-12T13:30:00Z,27.8516,-97.4820,1.0,5.76,1111122 
TCOON,ioos:station:TCOON:074:1,2017-09-12T14:30:00Z,27.8516,-97.4820,1.0,6.18,1111122 
TCOON,ioos:station:TCOON:074:1,2017-09-12T15:30:00Z,27.8516,-97.4820,1.0,6.31,1111122 
TCOON,ioos:station:TCOON:074:1,2017-09-12T16:30:00Z,27.8516,-97.4820,1.0,6.27,1111122 
TCOON,ioos:station:TCOON:074:1,2017-09-12T17:30:00Z,27.8516,-97.4820,1.0,6.63,1111122 
TCOON,ioos:station:TCOON:074:1,2017-09-12T18:30:00Z,27.8516,-97.4820,1.0,6.86,1111122 
TCOON,ioos:station:TCOON:074:1,2017-09-12T19:30:00Z,27.8516,-97.4820,1.0,7.71,1111122 
TCOON,ioos:station:TCOON:074:1,2017-09-12T20:30:00Z,27.8516,-97.4820,1.0,7.9,1111122 
TCOON,ioos:station:TCOON:074:1,2017-09-12T21:30:00Z,27.8516,-97.4820,1.0,7.82,1111122 
TCOON,ioos:station:TCOON:074:1,2017-09-12T22:30:00Z,27.8516,-97.4820,1.0,8.09,1111122 
TCOON,ioos:station:TCOON:074:1,2017-09-12T23:30:00Z,27.8516,-97.4820,1.0,7.78,1111122 
TCOON,ioos:station:TCOON:074:1,2017-09-13T00:30:00Z,27.8516,-97.4820,1.0,7.76,1111122 
TCOON,ioos:station:TCOON:074:1,2017-09-13T01:30:00Z,27.8516,-97.4820,1.0,8.21,1111122 
TCOON,ioos:station:TCOON:074:1,2017-09-13T02:30:00Z,27.8516,-97.4820,1.0,7.88,1111122 
TCOON,ioos:station:TCOON:074:1,2017-09-13T03:30:00Z,27.8516,-97.4820,1.0,7.53,1111122 
TCOON,ioos:station:TCOON:074:1,2017-09-13T04:30:00Z,27.8516,-97.4820,1.0,7.44,1111122 
TCOON,ioos:station:TCOON:074:1,2017-09-13T05:30:00Z,27.8516,-97.4820,1.0,7.33,1111122 
TCOON,ioos:station:TCOON:074:1,2017-09-13T06:30:00Z,27.8516,-97.4820,1.0,7.17,1111122 
TCOON,ioos:station:TCOON:074:1,2017-09-13T07:30:00Z,27.8516,-97.4820,1.0,7.05,1111122 
TCOON,ioos:station:TCOON:074:1,2017-09-13T08:30:00Z,27.8516,-97.4820,1.0,6.97,1111122 
TCOON,ioos:station:TCOON:074:1,2017-09-13T09:30:00Z,27.8516,-97.4820,1.0,6.86,1111122 
TCOON,ioos:station:TCOON:074:1,2017-09-13T10:30:00Z,27.8516,-97.4820,1.0,6.8,1111122 
TCOON,ioos:station:TCOON:074:1,2017-09-13T11:30:00Z,27.8516,-97.4820,1.0,6.58,1111122 
TCOON,ioos:station:TCOON:074:1,2017-09-13T12:30:00Z,27.8516,-97.4820,1.0,6.36,1111122 
TCOON,ioos:station:TCOON:074:1,2017-09-13T13:30:00Z,27.8516,-97.4820,1.0,6.36,1111122 
TCOON,ioos:station:TCOON:074:1,2017-09-13T14:30:00Z,27.8516,-97.4820,1.0,6.72,1111122 
TCOON,ioos:station:TCOON:074:1,2017-09-13T15:30:00Z,27.8516,-97.4820,1.0,7.14,1111122 
TCOON,ioos:station:TCOON:074:1,2017-09-13T16:30:00Z,27.8516,-97.4820,1.0,7.34,1111122 
TCOON,ioos:station:TCOON:074:1,2017-09-13T17:30:00Z,27.8516,-97.4820,1.0,7.61,1111122 
TCOON,ioos:station:TCOON:074:1,2017-09-13T18:30:00Z,27.8516,-97.4820,1.0,8.49,1111122 
TCOON,ioos:station:TCOON:074:1,2017-09-13T19:30:00Z,27.8516,-97.4820,1.0,8.99,1111122 
TCOON,ioos:station:TCOON:074:1,2017-09-13T20:30:00Z,27.8516,-97.4820,1.0,9.42,1111122 
TCOON,ioos:station:TCOON:074:1,2017-09-13T21:30:00Z,27.8516,-97.4820,1.0,9.02,1111122 
TCOON,ioos:station:TCOON:074:1,2017-09-13T22:30:00Z,27.8516,-97.4820,1.0,7.99,1111122 
TCOON,ioos:station:TCOON:074:1,2017-09-13T23:30:00Z,27.8516,-97.4820,1.0,7.39,1111122 